Regional Weather Roundup
Issued by NWS

Home | Current Version | Previous Version | Graphics & Text | Print | Product List | Glossary On
Versions: 1 2 3 4 5 6 7 8 9 10 11 12 13 14 15 16 17 18 19 20 21 22 23 24 25 26 27 28 29 30 31 32 33 34 35 36 37 38 39 40 41 42 43 44 45 46 47 48 49 50
000
ASUS43 KFSD 290802
RWRSD

WEATHER ROUNDUP FOR SOUTH DAKOTA
NATIONAL WEATHER SERVICE SIOUX FALLS SD
200 AM CST MON DEC 29 2014

NOTE: "FAIR" INDICATES FEW OR NO CLOUDS BELOW 12,000 FEET WITH NO
SIGNIFICANT WEATHER AND/OR OBSTRUCTIONS TO VISIBILITY.


SDZ001>005-009-010-012>017-290900-
NORTHWEST AND NORTH CENTRAL SOUTH DAKOTA

CITY           SKY/WX    TMP DP  RH WIND       PRES   REMARKS
BUFFALO          N/A      7   2  80 NE14      30.22R WCI -10
FAITH            N/A      7   3  84 NE14      30.31R WCI -10
MOBRIDGE       CLOUDY     6  -1  73 N10       30.39R WCI  -9
$$

SDZ012>016-024>037-041>051-057-063-072>074-290900-
SOUTHWEST AND SOUTH CENTRAL SOUTH DAKOTA

CITY           SKY/WX    TMP DP  RH WIND       PRES   REMARKS
RAPID CTY ARPT LGT SNOW  13  10  88 NE12      30.22R FOG     WCI  -1
PIERRE         CLOUDY     6   0  76 NE16      30.37R WCI -12
CUSTER         LGT SNOW  11   7  84 NE12      30.02R FOG     WCI  -3
ELLSWORTH AFB  LGT SNOW  13  10  90 NE10      30.22R WCI  -1
PHILIP         LGT SNOW  10   5  80 NE12      30.31R WCI  -5
PINE RIDGE     LGT SNOW  15  10  80 NE9       30.14R WCI   3
WINNER         LGT SNOW  13   9  84 NE14      30.27R WCI  -2
$$

SDZ004>011-016>023-039-040-290900-
NORTHEAST SOUTH DAKOTA

CITY           SKY/WX    TMP DP  RH WIND       PRES   REMARKS
ABERDEEN       CLOUDY     2  -5  72 NE16      30.46R WCI -18
WATERTOWN      CLOUDY     1  -5  75 NE12      30.35R WCI -16
SISSETON         N/A     -2  -7  79 N17       30.48R WCI -23
$$

SDZ017-020-022-023-036>040-048>070-290900-
SOUTHEAST SOUTH DAKOTA

CITY           SKY/WX    TMP DP  RH WIND       PRES   REMARKS
SIOUX FALLS    CLOUDY    12   7  80 NE16      30.32R WCI  -5
HURON          LGT SNOW   9   4  80 N10       30.39R WCI  -5
MITCHELL       LGT SNOW  13   9  84 NE9       30.36R FOG     WCI   1
YANKTON        MOCLDY    18  12  79 NE10      30.32R WCI   6
$$

ABBREVIATIONS USED IN REMARKS
   TC - TEMPERATURE IN CELSIUS
  WCI - WIND CHILL INDEX
   HX - HEAT INDEX
  VSB - VISIBILITY




USA.gov is the U.S. government's official web portal to all federal, state and local government web resources and services.